Regional Weather Roundup
Issued by NWS

Home | Current Version | Previous Version | Graphics & Text | Print | Product List | Glossary On
Versions: 1 2 3 4 5 6 7 8 9 10 11 12 13 14 15 16 17 18 19 20 21 22 23 24 25 26 27 28 29 30 31 32 33 34 35 36 37 38 39 40 41 42 43 44 45 46 47 48 49 50
369
ASUS45 KABQ 110701
RWRNM
NEW MEXICO REGIONAL WEATHER ROUNDUP
NATIONAL WEATHER SERVICE ALBUQUERQUE NM
1200 AM MST THU FEB 11 2016

NOTE: "FAIR" MEANS FEW OR NO CLOUDS BELOW 12,000 FEET AGL WITH NO
       SIGNIFICANT WEATHER OR OBSTRUCTIONS TO VISION.

      THIS PRODUCT IS RELEASED AS TWO VERSIONS.  ONE VERSION NEAR
      THE TOP OF THE HOUR CONTAINING PRELIMINARY DATA FROM ALBUQUERQUE
      AND OTHER STATIONS.  A FINAL VERSION WITH ADDITIONAL DATA IS
      ISSUED ABOUT 10 MINUTES AFTER THE HOUR.

NMZ501-503-504-510>518-110800-
NORTHWEST PLATEAU/NORTHCENTRAL MOUNTAINS

CITY           SKY/WX    TMP DP  RH WIND       PRES   REMARKS
FARMINGTON     CLOUDY    25  21  85 NE5       30.35R WCI  19
SANTA FE       CLOUDY    36  17  46 N12       30.30F WCI  28
TAOS           CLOUDY    27  19  74 N6        30.36R WCI  20
ANGEL FIRE     FAIR      17  12  81 CALM      30.38S

$$
NMZ402-403-502-505>509-110800-
WESTCENTRAL MOUNTAINS/SOUTHWEST MOUNTAINS

CITY           SKY/WX    TMP DP  RH WIND       PRES   REMARKS
GALLUP         CLEAR     21  19  92 NE3       30.39S
SILVER CITY      N/A     41  18  38 N15       30.30F

$$
NMZ407-409-411-412-110800-
SOUTHERN DESERTS

CITY           SKY/WX    TMP DP  RH WIND       PRES   REMARKS
DEMING         PTCLDY    37  15  40 NW7       30.25F WCI  32
ALAMOGORDO     CLOUDY    39  12  33 NE3       30.24F
T OR C         PTCLDY    47  15  27 W8        30.26S

$$
NMZ519>523-110800-
CENTRAL VALLEYS/CENTRAL HIGHLANDS

CITY           SKY/WX    TMP DP  RH WIND       PRES   REMARKS
ALBUQUERQUE    CLOUDY    40  19  43 CALM      30.31F
DOUBLE EAGLE   CLOUDY    33  13  43 NW5       30.32S WCI  28
MORIARTY ARPT  FAIR      30  18  61 CALM      30.31S
CLINES CORNERS CLOUDY    35  19  52 W16       30.27F WCI  25
BELEN          FAIR      35  17  47 CALM      30.31S
SOCORRO        NOT AVBL

$$
NMZ524>526-539-540-110800-
SOUTHCENTRAL MOUNTAINS

CITY           SKY/WX    TMP DP  RH WIND       PRES   REMARKS
RUIDOSO          N/A     45  14  29 NW6       30.31F

$$
NMZ527>531-110800-
NORTHEAST HIGHLANDS/NORTHEAST PLAINS

CITY           SKY/WX    TMP DP  RH WIND       PRES   REMARKS
LAS VEGAS      CLOUDY    40   9  28 N7        30.26F
RATON          CLOUDY    38   8  29 E6        30.22S WCI  33
CLAYTON        CLOUDY    44  14  29 N13       30.17S

$$
NMZ532>537-110800-
EASTCENTRAL PLAINS

CITY           SKY/WX    TMP DP  RH WIND       PRES   REMARKS
TUCUMCARI      CLOUDY    43  18  36 W14       30.10R
CANNON AFB     CLOUDY    42  17  35 W15       30.11F
CLOVIS AIRPORT CLOUDY    41  16  36 W13       30.11F

$$
NMZ028-029-538-110800-
SOUTHEAST PLAINS

CITY           SKY/WX    TMP DP  RH WIND       PRES   REMARKS
ROSWELL        CLOUDY    42  18  37 VRB5      30.15S
ARTESIA        CLEAR     43  18  36 CALM      30.16S
CARLSBAD       CLOUDY    54  18  24 MISG      30.13S
HOBBS          CLOUDY    41  16  36 SW7       30.16F


$$




USA.gov is the U.S. government's official web portal to all federal, state and local government web resources and services.